Location: Newark
(33.6439°N, 114.9881°W)
Time: 22:49:11
(UTC+00:00)

Vanguard 2 - Visible Passes

Search period start: 22 October 2019 00:00
Search period end: 01 November 2019 00:00
Orbit: 554 x 2937 km, 32.9° (Epoch: 22 October)

Date Brightness Start Highest point End Pass type
(mag) Time Alt. Az. Time Alt. Az. Time Alt. Az.
22 Oct 9.1 01:01:29 10° WSW 01:08:28 66° SSE 01:20:29 10° E visible
22 Oct 9.4 03:09:19 10° W 03:18:52 87° S 03:23:35 50° E visible
22 Oct 10.4 05:18:14 10° W 05:24:58 43° W 05:24:58 43° W visible
23 Oct 9.0 01:19:17 10° WSW 01:26:27 76° SSE 01:38:47 10° E visible
23 Oct 9.4 03:27:19 10° W 03:37:05 86° S 03:40:10 62° ESE visible
23 Oct 10.7 05:36:21 10° W 05:41:33 33° W 05:41:33 33° W visible
24 Oct 9.0 01:37:10 10° WSW 01:44:31 83° S 01:55:23 15° E visible
24 Oct 9.4 03:45:20 10° W 03:55:17 81° S 03:56:46 73° SE visible
24 Oct 11.0 05:54:31 10° W 05:58:09 24° W 05:58:09 24° W visible
25 Oct 9.0 01:55:07 10° W 02:02:38 86° S 02:12:01 20° E visible
25 Oct 9.5 04:03:21 10° W 04:13:25 74° SSW 04:13:25 74° SSW visible
25 Oct 11.3 06:12:49 10° W 06:14:48 17° W 06:14:48 17° W visible
26 Oct 9.0 02:13:04 10° W 02:20:47 86° S 02:28:42 26° E visible
26 Oct 9.7 04:21:22 10° W 04:30:06 62° SW 04:30:06 62° SW visible
26 Oct 11.5 06:31:20 10° W 06:31:30 11° W 06:31:30 11° W visible
27 Oct 9.1 02:31:02 10° W 02:38:55 83° S 02:45:27 33° ESE visible
27 Oct 10.0 04:39:27 10° W 04:46:50 49° WSW 04:46:50 49° WSW visible
28 Oct 9.1 02:49:00 10° W 02:57:02 76° SSW 03:02:14 40° ESE visible
28 Oct 10.4 04:57:38 10° W 05:03:39 37° WSW 05:03:39 37° WSW visible
29 Oct 9.3 03:06:58 10° W 03:15:09 68° SSW 03:19:06 46° SE visible
29 Oct 10.7 05:16:00 10° W 05:20:31 27° WSW 05:20:31 27° WSW visible
30 Oct 8.6 01:17:07 10° W 01:23:19 84° S 01:34:00 10° E visible
30 Oct 9.5 03:25:01 10° W 03:33:14 58° SSW 03:36:03 48° SSE visible
30 Oct 11.0 05:34:39 10° W 05:37:28 19° WSW 05:37:28 19° WSW visible
31 Oct 8.7 01:35:03 10° W 01:41:23 78° S 01:51:39 12° ESE visible
31 Oct 9.7 03:43:07 10° W 03:51:20 48° SSW 03:53:05 45° S visible
31 Oct 11.3 05:53:48 10° WSW 05:54:31 12° WSW 05:54:31 12° WSW visible
